Content
SEND FEEDBACK

Daily
Averages
Monthly
Summary
Switzerland

BERN, SWITZERLAND


Home > Europe > Switzerland
Elevation: 1673 feet     Latitude: 46 55N     Longitude: 007 30E

WEATHER
 
SELECT A DAY
Number of Records: 186,095;   Date Range: 7/1/96 - 11/23/14
 
SHARE

PRINT THIS DATA

[ ← Previous Day ]
WEATHER ALMANAC - MARCH 12, 2013
[ Next Day → ]
[ °C ]   °F
Weather ElementAverageHighLow
Temperature40.9 °F55.4 °F (2:50 pm)30.2 °F (3:50 am)
Dewpoint34.7 °F41 °F (12:50 pm)30.2 °F (3:50 am)
Humidity80.9 %100 % (12:50 am)47 % (2:50 pm)
Barometer29.41 in29.44 in (12:50 am)29.36 in (2:20 pm)
Wind Speed5.7 mph18.4 mph (2:20 pm)
Weather ElementAverage
Visibility5.9 mi
Wind DirectionSSE (171 °)

Weather ElementTotal
Precipitation---
Heating Degree Days22.2 (Base 65)
Averaged from 48 records on March 12, 2013
WEATHER CONDITIONS BREAKOUT
WIND DIRECTION BREAKOUT
WEATHER BY HOUR - MARCH 12, 2013
[ °C ]   °F
Local TimeTemperatureDewpointHumidityBarometerVisibilityWind DirectionWind SpeedGust SpeedPrecipitationEventsConditions
12:50 AM32.0 °F32.0 °F100 %29.44 inVariable1.2 mphClear
1:20 AM32.0 °F32.0 °F100 %29.44 inVariable1.2 mphClear
1:50 AM33.8 °F32.0 °F93 %29.44 in4.3 miCalm
2:20 AM32.0 °F32.0 °F100 %29.44 inNNW (330°)1.2 mphClear
2:50 AM32.0 °F32.0 °F100 %29.44 in6.2 miVariable1.2 mphScattered Clouds
3:20 AM32.0 °F32.0 °F100 %29.42 in0.8 miVariable1.2 mphPartly Cloudy
3:50 AM30.2 °F30.2 °F100 %29.42 in0.9 miVariable2.3 mphScattered Clouds
4:20 AM30.2 °F30.2 °F100 %29.42 in6.2 miVariable2.3 mphMostly Cloudy
4:50 AM32.0 °F32.0 °F100 %29.42 in6.2 miVariable1.2 mphOvercast
5:20 AM32.0 °F32.0 °F100 %29.42 in6.2 miVariable1.2 mphOvercast
5:50 AM32.0 °F32.0 °F100 %29.42 in6.2 miVariable2.3 mphMostly Cloudy
6:20 AM33.8 °F33.8 °F100 %29.42 in6.2 miCalmScattered Clouds
6:50 AM32.0 °F32.0 °F100 %29.42 in5.0 miNorth (350°)1.2 mphScattered Clouds
6:52 AM32.0 °F32.0 °F100 %29.42 in6.2 miCalmScattered Clouds
7:20 AM33.8 °F33.8 °F100 %29.42 in5.6 miVariable1.2 mphPartly Cloudy
7:50 AM33.8 °F33.8 °F100 %29.42 in6.2 miCalmMostly Cloudy
8:20 AM33.8 °F33.8 °F100 %29.42 in6.2 miSE (140°)3.5 mphMostly Cloudy
8:50 AM37.4 °F37.4 °F100 %29.42 in6.2 miESE (110°)4.6 mphMostly Cloudy
9:20 AM39.2 °F37.4 °F93 %29.42 in6.2 miVariable2.3 mphMostly Cloudy
9:50 AM41.0 °F37.4 °F87 %29.42 in6.2 miSouth (180°)3.5 mphMostly Cloudy
10:20 AM42.8 °F37.4 °F81 %29.42 in6.2 miWNW (290°)3.5 mphMostly Cloudy
10:50 AM44.6 °F39.2 °F81 %29.42 in6.2 miNNW (340°)4.6 mphMostly Cloudy
11:20 AM44.6 °F37.4 °F76 %29.39 in6.2 miVariable2.3 mphMostly Cloudy
11:50 AM46.4 °F39.2 °F76 %29.39 in6.2 miVariable3.5 mphMostly Cloudy
12:20 PM46.4 °F39.2 °F76 %29.39 in6.2 miVariable2.3 mphMostly Cloudy
12:50 PM50.0 °F41.0 °F71 %29.39 in6.2 miWest (260°)5.8 mphMostly Cloudy
1:20 PM50.0 °F39.2 °F66 %29.39 in6.2 miWest (280°)10.4 mphMostly Cloudy
1:50 PM51.8 °F37.4 °F58 %29.39 in6.2 miWest (260°)15.0 mphScattered Clouds
2:20 PM53.6 °F37.4 °F54 %29.36 in6.2 miWest (270°)18.4 mphScattered Clouds
2:50 PM55.4 °F35.6 °F47 %29.36 in6.2 miWest (260°)18.4 mphScattered Clouds
3:20 PM51.8 °F35.6 °F54 %29.36 in6.2 miWest (270°)17.3 mphScattered Clouds
3:50 PM53.6 °F35.6 °F51 %29.36 in6.2 miWest (270°)16.1 mphScattered Clouds
4:21 PM51.8 °F35.6 °F54 %29.36 in6.2 miWest (270°)16.1 mphMostly Cloudy
4:50 PM51.8 °F35.6 °F54 %29.36 in6.2 miWest (270°)11.5 mphMostly Cloudy
5:20 PM48.2 °F37.4 °F66 %29.36 in6.2 miWNW (300°)13.8 mphRainRain
5:50 PM48.2 °F35.6 °F62 %29.39 in6.2 miWNW (290°)11.5 mphScattered Clouds
6:20 PM46.4 °F35.6 °F66 %29.39 in6.2 miWNW (290°)9.2 mphScattered Clouds
6:50 PM44.6 °F35.6 °F71 %29.39 in6.2 miWNW (300°)5.8 mphScattered Clouds
7:20 PM44.6 °F33.8 °F66 %29.39 in6.2 miWNW (290°)4.6 mphScattered Clouds
7:50 PM44.6 °F33.8 °F66 %29.42 in6.2 miWest (280°)6.9 mphMostly Cloudy
8:20 PM41.0 °F33.8 °F76 %29.42 in6.2 miWNW (290°)5.8 mphMostly Cloudy
8:50 PM39.2 °F33.8 °F81 %29.42 in6.2 miWNW (290°)4.6 mphMostly Cloudy
9:20 PM41.0 °F35.6 °F81 %29.42 in6.2 miWNW (290°)3.5 mphMostly Cloudy
9:50 PM41.0 °F33.8 °F76 %29.44 in6.2 miWNW (300°)5.8 mphMostly Cloudy
10:20 PM41.0 °F33.8 °F76 %29.44 in6.2 miWest (280°)5.8 mphMostly Cloudy
10:50 PM41.0 °F33.8 °F76 %29.44 in6.2 miWNW (290°)5.8 mphScattered Clouds
11:20 PM41.0 °F33.8 °F76 %29.44 in6.2 miWNW (290°)6.9 mphMostly Cloudy
11:50 PM41.0 °F32.0 °F70 %29.44 in6.2 miWest (280°)8.1 mphMostly Cloudy
Hourly data recorded from LSZB, located miles away from Bern, Switzerland







STORIES FROM OUR PARTNERS